| time (UTC) | temp C | wind direction | speed KPH | gust KPH | rain 1hr cm | rain 24hr cm | rain mn cm | humidity % | barometer mb |
| 20260507090213 | 14 | 346 | 1.6 | 3.2 | 0.00 | 0.15 | 0.10 | 90 | 1014.2 |
| 20260507085503 | 14 | 345 | 0.0 | 3.2 | 0.00 | 0.15 | 0.10 | 90 | 1014.3 |
| 20260507085003 | 14 | 344 | 0.0 | 1.6 | 0.00 | 0.15 | 0.10 | 90 | 1014.2 |
| 20260507084503 | 14 | 344 | 0.0 | 3.2 | 0.00 | 0.15 | 0.10 | 91 | 1014.2 |
| 20260507084003 | 14 | 344 | 0.0 | 3.2 | 0.03 | 0.15 | 0.10 | 91 | 1014.0 |
| 20260507083505 | 13 | 343 | 0.0 | 1.6 | 0.03 | 0.15 | 0.10 | 91 | 1014.1 |
| 20260507083004 | 13 | 343 | 0.0 | 1.6 | 0.03 | 0.15 | 0.10 | 91 | 1014.1 |
| 20260507082505 | 13 | 343 | 0.0 | 3.2 | 0.03 | 0.15 | 0.10 | 91 | 1014.0 |
| 20260507082003 | 13 | 343 | 0.0 | 3.2 | 0.03 | 0.15 | 0.10 | 91 | 1013.9 |
| 20260507081503 | 13 | 343 | 0.0 | 3.2 | 0.03 | 0.15 | 0.10 | 91 | 1014.0 |
| 20260507081005 | 13 | 342 | 0.0 | 1.6 | 0.03 | 0.15 | 0.10 | 91 | 1014.1 |
| 20260507080710 | 13 | 342 | 0.0 | 1.6 | 0.03 | 0.15 | 0.10 | 91 | 1014.2 |
| 20260507080004 | 13 | 342 | 0.0 | 1.6 | 0.03 | 0.15 | 0.10 | 91 | 1014.1 |
| 20260507075505 | 13 | 342 | 0.0 | 3.2 | 0.03 | 0.15 | 0.10 | 91 | 1014.1 |
| 20260507075003 | 13 | 344 | 0.0 | 3.2 | 0.03 | 0.15 | 0.10 | 91 | 1014.1 |
| 20260507074712 | 13 | 344 | 0.0 | 3.2 | 0.03 | 0.15 | 0.10 | 91 | 1014.0 |
| 20260507074003 | 13 | 345 | 1.6 | 1.6 | 0.00 | 0.15 | 0.08 | 91 | 1013.7 |
| 20260507073505 | 13 | 345 | 1.6 | 3.2 | 0.00 | 0.15 | 0.08 | 91 | 1013.8 |
| 20260507073211 | 13 | 344 | 1.6 | 3.2 | 0.00 | 0.15 | 0.08 | 91 | 1013.7 |
| 20260507072503 | 13 | 344 | 0.0 | 3.2 | 0.00 | 0.15 | 0.08 | 91 | 1013.5 |
| 20260507072212 | 13 | 344 | 0.0 | 3.2 | 0.00 | 0.15 | 0.08 | 92 | 1013.7 |
| 20260507071504 | 13 | 0 | 0.0 | 0.0 | 0.00 | 0.15 | 0.08 | 91 | 1013.7 |
| 20260507071003 | 13 | 0 | 0.0 | 0.0 | 0.00 | 0.15 | 0.08 | 91 | 1013.7 |
| 20260507070505 | 13 | 343 | 0.0 | 1.6 | 0.00 | 0.15 | 0.08 | 91 | 1013.7 |
| 20260507070009 | 13 | 343 | 0.0 | 1.6 | 0.00 | 0.15 | 0.08 | 91 | 1013.6 |
| 20260507065503 | 13 | 0 | 0.0 | 0.0 | 0.00 | 0.15 | 0.08 | 91 | 1013.7 |
| 20260507065005 | 13 | 343 | 0.0 | 1.6 | 0.00 | 0.15 | 0.08 | 91 | 1013.6 |
| 20260507064503 | 12 | 343 | 0.0 | 1.6 | 0.00 | 0.15 | 0.08 | 92 | 1013.5 |
| 20260507064005 | 12 | 343 | 0.0 | 1.6 | 0.00 | 0.15 | 0.08 | 91 | 1013.6 |
| 20260507063503 | 12 | 343 | 0.0 | 1.6 | 0.00 | 0.15 | 0.08 | 91 | 1013.5 |
| 20260507063005 | 12 | 343 | 0.0 | 1.6 | 0.00 | 0.15 | 0.08 | 92 | 1013.4 |
| 20260507062710 | 12 | 343 | 0.0 | 1.6 | 0.00 | 0.15 | 0.08 | 92 | 1013.4 |
| 20260507062210 | 12 | 343 | 0.0 | 3.2 | 0.00 | 0.15 | 0.08 | 92 | 1013.3 |
| 20260507061505 | 12 | 343 | 0.0 | 3.2 | 0.00 | 0.15 | 0.08 | 93 | 1013.3 |
| 20260507061211 | 12 | 340 | 0.0 | 3.2 | 0.00 | 0.15 | 0.08 | 93 | 1013.3 |
| 20260507060503 | 12 | 328 | 0.0 | 3.2 | 0.00 | 0.15 | 0.08 | 93 | 1013.2 |
| 20260507060005 | 12 | 0 | 0.0 | 0.0 | 0.00 | 0.15 | 0.08 | 93 | 1013.2 |
| 20260507055503 | 12 | 0 | 0.0 | 0.0 | 0.00 | 0.15 | 0.08 | 93 | 1013.2 |
| 20260507055005 | 12 | 0 | 0.0 | 0.0 | 0.00 | 0.15 | 0.08 | 93 | 1013.2 |
| 20260507054503 | 12 | 0 | 0.0 | 0.0 | 0.00 | 0.15 | 0.08 | 93 | 1013.4 |
| 20260507053503 | 11 | 0 | 0.0 | 0.0 | 0.00 | 0.15 | 0.08 | 93 | 1013.2 |
| 20260507053005 | 11 | 0 | 0.0 | 0.0 | 0.00 | 0.15 | 0.08 | 93 | 1013.2 |
| 20260507052710 | 11 | 0 | 0.0 | 0.0 | 0.00 | 0.15 | 0.08 | 93 | 1013.2 |
| 20260507052003 | 11 | 316 | 0.0 | 1.6 | 0.00 | 0.15 | 0.08 | 93 | 1013.1 |
| 20260507051505 | 11 | 316 | 0.0 | 1.6 | 0.00 | 0.15 | 0.08 | 93 | 1013.2 |
| 20260507051003 | 11 | 316 | 0.0 | 1.6 | 0.00 | 0.15 | 0.08 | 93 | 1013.1 |
| 20260507050505 | 11 | 316 | 0.0 | 1.6 | 0.03 | 0.15 | 0.08 | 93 | 1013.1 |
| 20260507050211 | 11 | 316 | 0.0 | 1.6 | 0.03 | 0.15 | 0.08 | 93 | 1013.1 |
| 20260507045503 | 11 | 0 | 0.0 | 0.0 | 0.03 | 0.15 | 0.08 | 92 | 1013.0 |
| 20260507045005 | 11 | 0 | 0.0 | 0.0 | 0.03 | 0.15 | 0.08 | 92 | 1012.8 |
| 20260507044503 | 11 | 316 | 0.0 | 1.6 | 0.03 | 0.15 | 0.08 | 92 | 1012.7 |
| 20260507044005 | 11 | 316 | 0.0 | 1.6 | 0.03 | 0.15 | 0.08 | 93 | 1012.6 |
| 20260507043503 | 11 | 316 | 0.0 | 1.6 | 0.03 | 0.15 | 0.08 | 93 | 1012.5 |
| 20260507043003 | 11 | 316 | 0.0 | 3.2 | 0.03 | 0.15 | 0.08 | 93 | 1012.5 |
| 20260507042505 | 11 | 316 | 0.0 | 3.2 | 0.03 | 0.15 | 0.08 | 92 | 1012.4 |
| 20260507042003 | 11 | 316 | 0.0 | 1.6 | 0.03 | 0.15 | 0.08 | 92 | 1012.4 |
| 20260507041503 | 11 | 316 | 0.0 | 3.2 | 0.03 | 0.15 | 0.08 | 92 | 1012.4 |
| 20260507041003 | 11 | 316 | 0.0 | 3.2 | 0.03 | 0.15 | 0.08 | 92 | 1012.3 |
| 20260507040503 | 11 | 316 | 0.0 | 1.6 | 0.00 | 0.13 | 0.05 | 92 | 1012.3 |
| 20260507040006 | 11 | 0 | 0.0 | 0.0 | 0.00 | 0.13 | 0.05 | 91 | 1012.3 |
| 20260507035711 | 11 | 0 | 0.0 | 0.0 | 0.00 | 0.13 | 0.05 | 91 | 1012.3 |
| 20260507035212 | 11 | 0 | 0.0 | 0.0 | 0.00 | 0.13 | 0.05 | 91 | 1012.4 |
| 20260507034503 | 11 | 0 | 0.0 | 0.0 | 0.00 | 0.13 | 0.05 | 91 | 1012.4 |
| 20260507034005 | 11 | 316 | 0.0 | 1.6 | 0.00 | 0.13 | 0.05 | 91 | 1012.3 |
| 20260507033503 | 11 | 316 | 0.0 | 3.2 | 0.00 | 0.13 | 0.05 | 92 | 1012.4 |
| 20260507033003 | 11 | 316 | 0.0 | 3.2 | 0.00 | 0.13 | 0.05 | 91 | 1012.3 |
| 20260507032505 | 11 | 316 | 0.0 | 1.6 | 0.00 | 0.13 | 0.05 | 91 | 1012.3 |
| 20260507032211 | 11 | 0 | 0.0 | 0.0 | 0.00 | 0.13 | 0.05 | 91 | 1012.3 |
| 20260507031503 | 11 | 316 | 0.0 | 3.2 | 0.00 | 0.13 | 0.05 | 91 | 1012.2 |
| 20260507031005 | 11 | 316 | 1.6 | 3.2 | 0.00 | 0.13 | 0.05 | 91 | 1012.2 |
| 20260507030710 | 11 | 316 | 1.6 | 3.2 | 0.00 | 0.13 | 0.05 | 91 | 1012.3 |
| 20260507030006 | 11 | 316 | 0.0 | 3.2 | 0.00 | 0.13 | 0.05 | 90 | 1012.2 |
| 20260507025503 | 11 | 316 | 0.0 | 3.2 | 0.00 | 0.13 | 0.05 | 90 | 1012.1 |
| 20260507025005 | 11 | 316 | 0.0 | 3.2 | 0.00 | 0.13 | 0.05 | 90 | 1011.9 |
| 20260507024503 | 11 | 316 | 0.0 | 3.2 | 0.00 | 0.13 | 0.05 | 90 | 1011.9 |
| 20260507024003 | 11 | 316 | 0.0 | 3.2 | 0.00 | 0.13 | 0.05 | 91 | 1012.0 |
| 20260507023505 | 11 | 316 | 0.0 | 3.2 | 0.00 | 0.13 | 0.05 | 91 | 1012.1 |
| 20260507023004 | 11 | 0 | 0.0 | 0.0 | 0.00 | 0.13 | 0.05 | 91 | 1012.0 |
| 20260507022503 | 11 | 316 | 0.0 | 1.6 | 0.00 | 0.13 | 0.05 | 91 | 1012.1 |
| 20260507022005 | 11 | 316 | 0.0 | 1.6 | 0.00 | 0.13 | 0.05 | 90 | 1012.1 |
| 20260507021503 | 11 | 316 | 0.0 | 1.6 | 0.00 | 0.13 | 0.05 | 90 | 1012.1 |
| 20260507021005 | 11 | 0 | 0.0 | 0.0 | 0.00 | 0.13 | 0.05 | 91 | 1012.1 |
| 20260507020503 | 11 | 0 | 0.0 | 0.0 | 0.00 | 0.13 | 0.05 | 91 | 1012.1 |
| 20260507020005 | 11 | 316 | 0.0 | 1.6 | 0.00 | 0.13 | 0.05 | 90 | 1012.1 |
| 20260507015503 | 11 | 316 | 0.0 | 1.6 | 0.00 | 0.13 | 0.05 | 89 | 1012.1 |
| 20260507015005 | 11 | 316 | 0.0 | 1.6 | 0.00 | 0.13 | 0.05 | 89 | 1012.0 |
| 20260507014503 | 11 | 316 | 0.0 | 1.6 | 0.00 | 0.13 | 0.05 | 89 | 1012.1 |
| 20260507014003 | 11 | 316 | 0.0 | 3.2 | 0.00 | 0.13 | 0.05 | 89 | 1012.0 |
| 20260507013505 | 11 | 316 | 0.0 | 3.2 | 0.00 | 0.13 | 0.05 | 89 | 1012.1 |
| 20260507013003 | 11 | 316 | 0.0 | 3.2 | 0.00 | 0.13 | 0.05 | 89 | 1012.0 |
| 20260507012503 | 12 | 0 | 0.0 | 0.0 | 0.00 | 0.13 | 0.05 | 88 | 1012.1 |
| 20260507012005 | 12 | 0 | 0.0 | 0.0 | 0.00 | 0.13 | 0.05 | 88 | 1012.1 |
| 20260507011503 | 12 | 314 | 1.6 | 4.8 | 0.00 | 0.13 | 0.05 | 89 | 1012.0 |
| 20260507011005 | 12 | 307 | 1.6 | 4.8 | 0.03 | 0.13 | 0.05 | 89 | 1012.1 |
| 20260507010503 | 12 | 303 | 0.0 | 4.8 | 0.03 | 0.13 | 0.05 | 89 | 1012.0 |
| 20260507010006 | 12 | 303 | 0.0 | 3.2 | 0.05 | 0.13 | 0.05 | 89 | 1011.9 |
| 20260507005503 | 12 | 303 | 0.0 | 1.6 | 0.05 | 0.13 | 0.05 | 88 | 1012.0 |
| 20260507005213 | 12 | 0 | 0.0 | 0.0 | 0.05 | 0.13 | 0.05 | 88 | 1012.0 |
| 20260507004503 | 12 | 303 | 1.6 | 3.2 | 0.05 | 0.13 | 0.05 | 88 | 1012.2 |
| 20260507004210 | 13 | 303 | 1.6 | 3.2 | 0.05 | 0.13 | 0.05 | 88 | 1012.1 |
| 20260507003505 | 13 | 288 | 1.6 | 4.8 | 0.05 | 0.13 | 0.05 | 89 | 1012.3 |
| 20260507003210 | 13 | 238 | 1.6 | 4.8 | 0.05 | 0.13 | 0.05 | 89 | 1012.2 |
| 20260507002503 | 13 | 105 | 1.6 | 3.2 | 0.05 | 0.13 | 0.05 | 88 | 1012.3 |
| 20260507002003 | 13 | 129 | 0.0 | 3.2 | 0.05 | 0.13 | 0.05 | 88 | 1012.3 |
| 20260507001504 | 13 | 132 | 0.0 | 3.2 | 0.05 | 0.13 | 0.05 | 88 | 1012.3 |
| 20260507001005 | 13 | 138 | 0.0 | 1.6 | 0.05 | 0.10 | 0.05 | 87 | 1012.4 |
| 20260507000503 | 13 | 138 | 0.0 | 1.6 | 0.05 | 0.10 | 0.05 | 88 | 1012.5 |
| 20260507000004 | 13 | 138 | 0.0 | 3.2 | 0.03 | 0.08 | 0.03 | 87 | 1012.6 |
| 20260506235505 | 13 | 138 | 0.0 | 4.8 | 0.03 | 0.08 | 0.03 | 87 | 1012.6 |
| 20260506235003 | 13 | 137 | 1.6 | 4.8 | 0.03 | 0.08 | 0.03 | 87 | 1012.6 |
| 20260506234712 | 13 | 136 | 1.6 | 4.8 | 0.03 | 0.08 | 0.03 | 87 | 1012.7 |
| 20260506234003 | 13 | 149 | 1.6 | 6.4 | 0.03 | 0.08 | 0.03 | 87 | 1012.6 |
| 20260506233503 | 13 | 176 | 0.0 | 6.4 | 0.03 | 0.08 | 0.03 | 86 | 1012.5 |
| 20260506233005 | 13 | 217 | 0.0 | 4.8 | 0.00 | 0.05 | 0.00 | 87 | 1012.6 |
| 20260506232503 | 13 | 246 | 1.6 | 3.2 | 0.00 | 0.05 | 0.00 | 87 | 1012.5 |
| 20260506232005 | 13 | 246 | 1.6 | 3.2 | 0.00 | 0.05 | 0.00 | 87 | 1012.3 |
| 20260506231503 | 13 | 250 | 1.6 | 4.8 | 0.00 | 0.05 | 0.00 | 87 | 1012.5 |
| 20260506231005 | 13 | 274 | 0.0 | 4.8 | 0.00 | 0.05 | 0.00 | 87 | 1012.4 |
| 20260506230508 | 13 | 311 | 0.0 | 3.2 | 0.00 | 0.05 | 0.00 | 88 | 1012.4 |
| 20260506230006 | 13 | 312 | 1.6 | 4.8 | 0.00 | 0.05 | 0.00 | 88 | 1012.3 |
| 20260506225503 | 13 | 316 | 1.6 | 4.8 | 0.00 | 0.05 | 0.00 | 87 | 1012.2 |
| 20260506225005 | 13 | 323 | 3.2 | 4.8 | 0.00 | 0.05 | 0.00 | 88 | 1012.3 |
| 20260506224710 | 13 | 314 | 3.2 | 6.4 | 0.00 | 0.05 | 0.00 | 88 | 1012.2 |
| 20260506224003 | 13 | 322 | 1.6 | 6.4 | 0.00 | 0.05 | 0.00 | 88 | 1012.3 |
| 20260506223505 | 13 | 331 | 1.6 | 4.8 | 0.00 | 0.05 | 0.00 | 88 | 1012.2 |
| 20260506223003 | 13 | 331 | 1.6 | 4.8 | 0.00 | 0.05 | 0.00 | 87 | 1012.1 |
| 20260506222505 | 13 | 332 | 1.6 | 4.8 | 0.00 | 0.05 | 0.00 | 87 | 1012.0 |
| 20260506222003 | 13 | 332 | 1.6 | 4.8 | 0.00 | 0.05 | 0.00 | 88 | 1012.0 |
| 20260506221504 | 13 | 332 | 1.6 | 4.8 | 0.00 | 0.05 | 0.00 | 88 | 1011.9 |
| 20260506221005 | 13 | 332 | 1.6 | 4.8 | 0.00 | 0.05 | 0.00 | 87 | 1011.9 |
| 20260506220503 | 13 | 332 | 1.6 | 4.8 | 0.00 | 0.05 | 0.00 | 87 | 1011.9 |
| 20260506220100 | 13 | 332 | 1.6 | 4.8 | 0.00 | 0.05 | 0.00 | 88 | 1011.9 |
| 20260506215503 | 13 | 332 | 1.6 | 3.2 | 0.00 | 0.05 | 0.05 | 87 | 1011.7 |
| 20260506215006 | 13 | 332 | 1.6 | 3.2 | 0.00 | 0.05 | 0.05 | 88 | 1011.6 |
| 20260506214710 | 13 | 332 | 0.0 | 3.2 | 0.00 | 0.05 | 0.05 | 87 | 1011.6 |
| 20260506214005 | 13 | 333 | 0.0 | 3.2 | 0.00 | 0.05 | 0.05 | 88 | 1011.6 |
| 20260506213503 | 13 | 333 | 0.0 | 3.2 | 0.00 | 0.05 | 0.05 | 87 | 1011.8 |
| 20260506213210 | 13 | 333 | 1.6 | 3.2 | 0.00 | 0.05 | 0.05 | 88 | 1011.8 |
| 20260506212505 | 13 | 322 | 1.6 | 4.8 | 0.00 | 0.05 | 0.05 | 88 | 1011.8 |
| 20260506212004 | 13 | 322 | 1.6 | 8.0 | 0.00 | 0.05 | 0.05 | 88 | 1011.6 |
| 20260506211505 | 13 | 319 | 1.6 | 8.0 | 0.00 | 0.05 | 0.05 | 88 | 1011.6 |
| 20260506211003 | 13 | 314 | 0.0 | 3.2 | 0.00 | 0.05 | 0.05 | 88 | 1011.8 |
| 20260506210505 | 13 | 314 | 0.0 | 1.6 | 0.00 | 0.05 | 0.05 | 86 | 1011.6 |
| 20260506210004 | 13 | 314 | 0.0 | 3.2 | 0.00 | 0.05 | 0.05 | 86 | 1011.5 |
| 20260506205712 | 13 | 314 | 0.0 | 3.2 | 0.00 | 0.05 | 0.05 | 86 | 1011.5 |
| 20260506205003 | 13 | 314 | 0.0 | 4.8 | 0.00 | 0.05 | 0.05 | 86 | 1011.4 |
| 20260506204503 | 13 | 314 | 0.0 | 4.8 | 0.00 | 0.05 | 0.05 | 86 | 1011.4 |
| 20260506204005 | 13 | 314 | 0.0 | 3.2 | 0.00 | 0.05 | 0.05 | 86 | 1011.2 |
| 20260506203503 | 13 | 314 | 1.6 | 3.2 | 0.00 | 0.05 | 0.05 | 85 | 1011.1 |
| 20260506203211 | 13 | 314 | 1.6 | 3.2 | 0.00 | 0.05 | 0.05 | 86 | 1011.2 |
| 20260506202505 | 13 | 314 | 0.0 | 4.8 | 0.00 | 0.05 | 0.05 | 86 | 1011.3 |
| 20260506202003 | 13 | 315 | 0.0 | 4.8 | 0.00 | 0.05 | 0.05 | 86 | 1011.3 |
| 20260506201710 | 13 | 315 | 0.0 | 3.2 | 0.00 | 0.05 | 0.05 | 85 | 1011.3 |
| 20260506201005 | 13 | 315 | 0.0 | 3.2 | 0.00 | 0.05 | 0.05 | 86 | 1011.3 |
| 20260506200503 | 13 | 315 | 0.0 | 3.2 | 0.00 | 0.05 | 0.05 | 85 | 1011.2 |
| 20260506200213 | 13 | 315 | 0.0 | 3.2 | 0.00 | 0.05 | 0.05 | 85 | 1011.3 |
| 20260506195503 | 13 | 315 | 0.0 | 3.2 | 0.00 | 0.05 | 0.05 | 85 | 1011.3 |
| 20260506195003 | 13 | 0 | 0.0 | 0.0 | 0.00 | 0.05 | 0.05 | 85 | 1011.2 |
| 20260506194505 | 13 | 315 | 0.0 | 1.6 | 0.00 | 0.05 | 0.05 | 84 | 1011.1 |
| 20260506194003 | 14 | 315 | 0.0 | 1.6 | 0.00 | 0.05 | 0.05 | 84 | 1011.2 |
| 20260506193503 | 14 | 315 | 0.0 | 4.8 | 0.00 | 0.05 | 0.05 | 84 | 1011.2 |
| 20260506193005 | 14 | 315 | 1.6 | 4.8 | 0.00 | 0.05 | 0.05 | 83 | 1011.3 |
| 20260506192710 | 14 | 315 | 0.0 | 3.2 | 0.00 | 0.05 | 0.05 | 83 | 1011.2 |
| 20260506192003 | 14 | 315 | 0.0 | 3.2 | 0.00 | 0.05 | 0.05 | 83 | 1011.3 |
| 20260506191505 | 14 | 315 | 0.0 | 3.2 | 0.00 | 0.05 | 0.05 | 82 | 1011.0 |
| 20260506191210 | 14 | 0 | 0.0 | 0.0 | 0.00 | 0.05 | 0.05 | 82 | 1010.8 |
| 20260506190712 | 15 | 315 | 0.0 | 1.6 | 0.00 | 0.05 | 0.05 | 81 | 1010.9 |
| 20260506190005 | 15 | 315 | 0.0 | 1.6 | 0.00 | 0.05 | 0.05 | 81 | 1010.9 |
| 20260506185505 | 15 | 315 | 1.6 | 3.2 | 0.00 | 0.05 | 0.05 | 81 | 1010.8 |
| 20260506185003 | 15 | 315 | 1.6 | 4.8 | 0.00 | 0.05 | 0.05 | 81 | 1010.6 |
| 20260506184503 | 15 | 315 | 1.6 | 4.8 | 0.00 | 0.05 | 0.05 | 81 | 1010.6 |
| 20260506184005 | 15 | 321 | 1.6 | 6.4 | 0.00 | 0.05 | 0.05 | 81 | 1010.7 |
| 20260506183503 | 15 | 326 | 0.0 | 6.4 | 0.00 | 0.05 | 0.05 | 81 | 1010.6 |
| 20260506183004 | 15 | 342 | 0.0 | 4.8 | 0.00 | 0.05 | 0.05 | 80 | 1010.5 |
| 20260506182503 | 16 | 342 | 0.0 | 4.8 | 0.00 | 0.05 | 0.05 | 80 | 1010.5 |
| 20260506182210 | 16 | 342 | 1.6 | 3.2 | 0.00 | 0.05 | 0.05 | 80 | 1010.4 |
| 20260506181505 | 16 | 342 | 1.6 | 4.8 | 0.00 | 0.05 | 0.05 | 80 | 1010.3 |
| 20260506181003 | 16 | 342 | 1.6 | 4.8 | 0.00 | 0.05 | 0.05 | 80 | 1010.3 |
| 20260506180503 | 16 | 342 | 1.6 | 4.8 | 0.00 | 0.05 | 0.05 | 79 | 1010.3 |
| 20260506180006 | 16 | 342 | 3.2 | 4.8 | 0.00 | 0.05 | 0.05 | 79 | 1010.3 |
| 20260506175503 | 16 | 335 | 3.2 | 6.4 | 0.00 | 0.05 | 0.05 | 78 | 1010.3 |
| 20260506175003 | 17 | 303 | 1.6 | 6.4 | 0.00 | 0.05 | 0.05 | 77 | 1010.4 |
| 20260506174712 | 17 | 276 | 1.6 | 8.0 | 0.00 | 0.05 | 0.05 | 77 | 1010.3 |
| 20260506174003 | 17 | 273 | 3.2 | 8.0 | 0.00 | 0.05 | 0.05 | 76 | 1010.3 |
| 20260506173505 | 17 | 281 | 3.2 | 11.3 | 0.00 | 0.05 | 0.05 | 75 | 1010.2 |
| 20260506173003 | 17 | 262 | 1.6 | 11.3 | 0.00 | 0.05 | 0.05 | 74 | 1010.3 |
| 20260506172505 | 17 | 250 | 1.6 | 4.8 | 0.00 | 0.05 | 0.05 | 74 | 1010.1 |
| 20260506172003 | 17 | 243 | 3.2 | 6.4 | 0.00 | 0.05 | 0.05 | 73 | 1010.2 |
| 20260506171505 | 18 | 248 | 3.2 | 8.0 | 0.00 | 0.05 | 0.05 | 73 | 1010.2 |
| 20260506171003 | 18 | 256 | 1.6 | 8.0 | 0.00 | 0.05 | 0.05 | 73 | 1010.2 |
| 20260506170503 | 18 | 241 | 1.6 | 8.0 | 0.00 | 0.05 | 0.05 | 74 | 1010.2 |
| 20260506170005 | 18 | 244 | 3.2 | 6.4 | 0.00 | 0.05 | 0.05 | 74 | 1010.3 |
| 20260506165710 | 18 | 238 | 3.2 | 12.9 | 0.00 | 0.05 | 0.05 | 73 | 1010.1 |
| 20260506165003 | 18 | 250 | 1.6 | 12.9 | 0.00 | 0.05 | 0.05 | 74 | 1010.2 |
| 20260506164505 | 18 | 280 | 1.6 | 8.0 | 0.00 | 0.05 | 0.05 | 74 | 1010.3 |
| 20260506164003 | 18 | 273 | 3.2 | 8.0 | 0.00 | 0.05 | 0.05 | 74 | 1010.3 |
| 20260506163503 | 18 | 307 | 4.8 | 11.3 | 0.00 | 0.05 | 0.05 | 75 | 1010.3 |
| 20260506163005 | 18 | 255 | 4.8 | 14.5 | 0.00 | 0.05 | 0.05 | 74 | 1010.3 |
| 20260506162503 | 18 | 246 | 3.2 | 14.5 | 0.00 | 0.05 | 0.05 | 76 | 1010.4 |
| 20260506162005 | 17 | 267 | 1.6 | 12.9 | 0.00 | 0.05 | 0.05 | 76 | 1010.3 |
| 20260506161711 | 17 | 293 | 1.6 | 6.4 | 0.00 | 0.05 | 0.05 | 79 | 1010.3 |
| 20260506161003 | 17 | 328 | 1.6 | 3.2 | 0.00 | 0.05 | 0.05 | 82 | 1010.4 |
| 20260506160505 | 17 | 322 | 1.6 | 4.8 | 0.00 | 0.05 | 0.05 | 83 | 1010.3 |
| 20260506160004 | 17 | 319 | 3.2 | 4.8 | 0.00 | 0.05 | 0.05 | 83 | 1010.3 |
| 20260506155503 | 17 | 315 | 3.2 | 6.4 | 0.00 | 0.05 | 0.05 | 82 | 1010.5 |
| 20260506155005 | 17 | 315 | 1.6 | 6.4 | 0.00 | 0.05 | 0.05 | 82 | 1010.5 |
| 20260506154503 | 17 | 315 | 0.0 | 4.8 | 0.00 | 0.05 | 0.05 | 82 | 1010.5 |
| 20260506154003 | 17 | 315 | 0.0 | 3.2 | 0.00 | 0.05 | 0.05 | 81 | 1010.7 |
| 20260506153503 | 17 | 315 | 0.0 | 3.2 | 0.00 | 0.05 | 0.05 | 81 | 1010.6 |
| 20260506153210 | 17 | 315 | 1.6 | 3.2 | 0.00 | 0.05 | 0.05 | 81 | 1010.6 |
| 20260506152505 | 17 | 318 | 1.6 | 4.8 | 0.00 | 0.05 | 0.05 | 80 | 1010.6 |
| 20260506152003 | 17 | 319 | 1.6 | 4.8 | 0.00 | 0.05 | 0.05 | 80 | 1010.5 |
| 20260506151712 | 17 | 321 | 1.6 | 4.8 | 0.00 | 0.05 | 0.05 | 79 | 1010.6 |
| 20260506151003 | 17 | 323 | 1.6 | 4.8 | 0.00 | 0.05 | 0.05 | 80 | 1010.6 |
| 20260506150503 | 17 | 324 | 1.6 | 4.8 | 0.00 | 0.05 | 0.05 | 79 | 1010.6 |
| 20260506150006 | 17 | 324 | 1.6 | 3.2 | 0.00 | 0.05 | 0.05 | 80 | 1010.5 |
| 20260506145503 | 17 | 308 | 1.6 | 6.4 | 0.00 | 0.05 | 0.05 | 80 | 1010.5 |
| 20260506145003 | 17 | 288 | 1.6 | 6.4 | 0.00 | 0.05 | 0.05 | 80 | 1010.6 |
| 20260506144505 | 17 | 260 | 0.0 | 3.2 | 0.00 | 0.05 | 0.05 | 80 | 1010.6 |
| 20260506144003 | 17 | 255 | 0.0 | 3.2 | 0.00 | 0.05 | 0.05 | 79 | 1010.5 |
| 20260506143505 | 17 | 255 | 0.0 | 1.6 | 0.00 | 0.05 | 0.05 | 79 | 1010.6 |
| 20260506143003 | 17 | 252 | 1.6 | 3.2 | 0.00 | 0.05 | 0.05 | 79 | 1010.6 |
| 20260506142505 | 17 | 251 | 1.6 | 3.2 | 0.00 | 0.05 | 0.05 | 79 | 1010.7 |
| 20260506142210 | 17 | 251 | 1.6 | 3.2 | 0.00 | 0.05 | 0.05 | 79 | 1010.7 |
| 20260506141503 | 17 | 263 | 3.2 | 9.7 | 0.00 | 0.05 | 0.05 | 78 | 1010.8 |
| 20260506141212 | 17 | 271 | 3.2 | 9.7 | 0.00 | 0.05 | 0.05 | 78 | 1010.7 |
| 20260506140503 | 17 | 282 | 1.6 | 6.4 | 0.00 | 0.05 | 0.05 | 77 | 1010.9 |
| 20260506140005 | 17 | 277 | 1.6 | 4.8 | 0.00 | 0.05 | 0.05 | 78 | 1010.8 |
| 20260506135712 | 17 | 274 | 1.6 | 4.8 | 0.00 | 0.05 | 0.05 | 80 | 1011.0 |
| 20260506135210 | 17 | 273 | 1.6 | 4.8 | 0.00 | 0.05 | 0.05 | 81 | 1010.8 |
| 20260506134503 | 17 | 273 | 1.6 | 4.8 | 0.00 | 0.05 | 0.05 | 80 | 1010.9 |
| 20260506134211 | 17 | 271 | 1.6 | 4.8 | 0.00 | 0.05 | 0.05 | 80 | 1010.9 |
| 20260506133505 | 17 | 266 | 1.6 | 4.8 | 0.00 | 0.05 | 0.05 | 80 | 1011.0 |
| 20260506133210 | 17 | 269 | 1.6 | 4.8 | 0.00 | 0.05 | 0.05 | 80 | 1011.1 |
| 20260506132505 | 17 | 282 | 1.6 | 4.8 | 0.00 | 0.05 | 0.05 | 80 | 1011.1 |
| 20260506132003 | 17 | 284 | 0.0 | 3.2 | 0.00 | 0.05 | 0.05 | 80 | 1011.2 |
| 20260506131503 | 17 | 284 | 0.0 | 3.2 | 0.00 | 0.05 | 0.05 | 79 | 1011.3 |
| 20260506131212 | 17 | 284 | 0.0 | 1.6 | 0.00 | 0.05 | 0.05 | 78 | 1011.3 |
| 20260506130503 | 17 | 281 | 0.0 | 3.2 | 0.00 | 0.05 | 0.05 | 77 | 1011.4 |
| 20260506130005 | 17 | 280 | 0.0 | 3.2 | 0.00 | 0.05 | 0.05 | 77 | 1011.4 |
| 20260506125505 | 17 | 274 | 0.0 | 1.6 | 0.00 | 0.05 | 0.05 | 77 | 1011.5 |
| 20260506125003 | 17 | 274 | 0.0 | 1.6 | 0.00 | 0.05 | 0.05 | 79 | 1011.6 |
| 20260506124505 | 17 | 274 | 1.6 | 3.2 | 0.00 | 0.05 | 0.05 | 80 | 1011.5 |
| 20260506124003 | 17 | 274 | 1.6 | 4.8 | 0.00 | 0.05 | 0.05 | 78 | 1011.7 |
| 20260506123503 | 17 | 274 | 1.6 | 4.8 | 0.00 | 0.05 | 0.05 | 79 | 1011.8 |
| 20260506123005 | 17 | 274 | 1.6 | 4.8 | 0.00 | 0.05 | 0.05 | 78 | 1011.7 |
| 20260506122503 | 17 | 264 | 1.6 | 4.8 | 0.00 | 0.05 | 0.05 | 77 | 1011.7 |
| 20260506122003 | 16 | 248 | 1.6 | 6.4 | 0.00 | 0.05 | 0.05 | 77 | 1011.8 |
| 20260506121505 | 16 | 199 | 1.6 | 6.4 | 0.00 | 0.05 | 0.05 | 79 | 1011.7 |
| 20260506121003 | 16 | 203 | 1.6 | 4.8 | 0.00 | 0.05 | 0.05 | 80 | 1011.8 |
| 20260506120503 | 16 | 284 | 1.6 | 4.8 | 0.00 | 0.05 | 0.05 | 81 | 1011.8 |
| 20260506120005 | 16 | 275 | 1.6 | 4.8 | 0.00 | 0.05 | 0.05 | 80 | 1011.8 |
| 20260506115712 | 16 | 270 | 3.2 | 4.8 | 0.00 | 0.05 | 0.05 | 80 | 1011.8 |
| 20260506115210 | 16 | 269 | 3.2 | 6.4 | 0.00 | 0.05 | 0.05 | 79 | 1011.9 |
| 20260506114505 | 16 | 258 | 3.2 | 9.7 | 0.00 | 0.05 | 0.05 | 80 | 1012.1 |
| 20260506114003 | 16 | 258 | 3.2 | 6.4 | 0.00 | 0.05 | 0.05 | 80 | 1012.1 |
| 20260506113505 | 16 | 270 | 1.6 | 6.4 | 0.00 | 0.05 | 0.05 | 80 | 1012.0 |
| 20260506113003 | 16 | 282 | 1.6 | 6.4 | 0.00 | 0.05 | 0.05 | 81 | 1012.2 |
| 20260506112503 | 16 | 335 | 1.6 | 4.8 | 0.05 | 0.05 | 0.05 | 82 | 1012.3 |
| 20260506112005 | 16 | 309 | 1.6 | 4.8 | 0.05 | 0.05 | 0.05 | 82 | 1012.3 |
| 20260506111503 | 16 | 259 | 3.2 | 4.8 | 0.05 | 0.05 | 0.05 | 83 | 1012.3 |
| 20260506111211 | 16 | 257 | 3.2 | 4.8 | 0.05 | 0.05 | 0.05 | 81 | 1012.4 |
| 20260506110710 | 16 | 267 | 4.8 | 4.8 | 0.05 | 0.05 | 0.05 | 82 | 1012.4 |
| 20260506110211 | 16 | 269 | 4.8 | 11.3 | 0.05 | 0.05 | 0.05 | 80 | 1012.3 |
| 20260506105505 | 16 | 274 | 4.8 | 12.9 | 0.05 | 0.05 | 0.05 | 79 | 1012.5 |
| 20260506105004 | 16 | 278 | 3.2 | 12.9 | 0.05 | 0.05 | 0.05 | 79 | 1012.6 |
| 20260506104712 | 17 | 285 | 3.2 | 11.3 | 0.05 | 0.05 | 0.05 | 79 | 1012.6 |
| 20260506104210 | 17 | 308 | 3.2 | 6.4 | 0.05 | 0.05 | 0.05 | 80 | 1012.6 |
| 20260506103712 | 17 | 297 | 3.2 | 6.4 | 0.05 | 0.05 | 0.05 | 79 | 1012.5 |
| 20260506103003 | 17 | 295 | 3.2 | 6.4 | 0.05 | 0.05 | 0.05 | 78 | 1012.7 |
| 20260506102505 | 17 | 289 | 3.2 | 8.0 | 0.03 | 0.03 | 0.05 | 77 | 1012.7 |
| 20260506102003 | 17 | 262 | 3.2 | 8.0 | 0.00 | 0.00 | 0.00 | 76 | 1012.8 |
| 20260506101503 | 17 | 261 | 4.8 | 11.3 | 0.00 | 0.00 | 0.00 | 75 | 1012.9 |
| 20260506101005 | 17 | 273 | 6.4 | 12.9 | 0.00 | 0.00 | 0.00 | 74 | 1012.7 |
| 20260506100503 | 17 | 268 | 8.0 | 14.5 | 0.00 | 0.00 | 0.00 | 73 | 1012.7 |
| 20260506100005 | 17 | 271 | 8.0 | 20.9 | 0.00 | 0.00 | 0.00 | 72 | 1012.6 |
| 20260506095503 | 17 | 272 | 8.0 | 20.9 | 0.00 | 0.00 | 0.00 | 71 | 1012.5 |
| 20260506095212 | 18 | 266 | 8.0 | 20.9 | 0.00 | 0.00 | 0.00 | 71 | 1012.6 |
| 20260506094503 | 18 | 253 | 6.4 | 16.1 | 0.00 | 0.00 | 0.00 | 71 | 1012.7 |
| 20260506094005 | 18 | 249 | 4.8 | 16.1 | 0.00 | 0.00 | 0.00 | 71 | 1012.6 |
| 20260506093503 | 18 | 238 | 4.8 | 14.5 | 0.00 | 0.00 | 0.00 | 71 | 1012.6 |
| 20260506093003 | 18 | 249 | 4.8 | 14.5 | 0.00 | 0.00 | 0.00 | 71 | 1012.7 |
| 20260506092505 | 18 | 257 | 6.4 | 14.5 | 0.00 | 0.00 | 0.00 | 71 | 1012.5 |
| 20260506092003 | 18 | 270 | 4.8 | 14.5 | 0.00 | 0.00 | 0.00 | 71 | 1012.4 |
| 20260506091710 | 18 | 276 | 4.8 | 14.5 | 0.00 | 0.00 | 0.00 | 71 | 1012.5 |
| 20260506091212 | 18 | 266 | 4.8 | 14.5 | 0.00 | 0.00 | 0.00 | 71 | 1012.5 |
| 20260506090503 | 19 | 225 | 3.2 | 9.7 | 0.00 | 0.00 | 0.00 | 73 | 1012.2 |